Tracking 28052 objects as of 25-Sep-2023
HD Live streaming from Space Station
objects crossing your sky now

STARLINK-2636

Track STARLINK-2636 now!
10-day predictions
STARLINK-2636 is classified as:


NORAD ID: 48357
Int'l Code: 2021-038E
Perigee: 553.5 km
Apogee: 555.3 km
Inclination: 53.1 °
Period: 95.6 minutes
Semi major axis: 6925 km
RCS: Unknown
Launch date: May 4, 2021
Source: United States (US)
Launch site: AIR FORCE EASTERN TEST RANGE (AFETR)
Your satellite tracking list
Your tracking list is empty




NASA's NSSDC Master Catalog

Two Line Element Set (TLE):
1 48357U 21038E   23267.71271480  .00017325  00000-0  11794-2 0  9993
2 48357  53.0545  68.3343 0001304 100.7437 259.3699 15.06391769132420
Source of the keplerian elements: AFSPC